Location: College Park
(38.9810°N, 76.9370°W)
Time: 07:50:57
(UTC-05:00)

N. Korean satellite - Pass Details

Date: 16 November 2017
Orbit: 460 x 514 km, 97.2° (Epoch: 21 November)

Event Time Altitude Azimuth Distance (km) Brightness Sun altitude
Rises 17:58:27 0° 161° (SSE) 2,475 10.1 -12.9°
Reaches altitude 10° 18:00:29 10° 158° (SSE) 1,609 9.1 -13.3°
Maximum altitude 18:03:53 64° 76° (ENE) 522 6.4 -13.9°
Drops below altitude 10° 18:07:23 10° 355° (N) 1,642 9.2 -14.6°
Sets 18:09:28 0° 352° (N) 2,533 10.2 -15.0°
